This demonstration page uses our WeatherBlox Daily Observations layout. Learn more.

Left ArrowRight Arrow

38.20091, -84.87328

Hourly Observations for April 29, 2016

Temp ( °F °C ) Dew Point ( °F °C ) Humidity (%) Winds ( mph kmh ) Pressure ( in mb ) Visibility ( mi km ) Precip ( " mm )
12:53 am 00:53 Clear 56 13.3 49 9.4 77 77 Calm 29.94 1014 10 16 0.00 0.00
1:53 am 01:53 Clear 57 13.9 49 9.4 74 74 WNW 6 9 29.95 1014 10 16 0.00 0.00
2:53 am 02:53 Clear 58 14.4 49 9.4 72 72 NW 5 7 29.96 1014 10 16 0.00 0.00
3:53 am 03:53 Clear 55 12.8 49 9.4 80 80 Calm 29.96 1015 10 16 0.00 0.00
4:53 am 04:53 Clear 52 11.1 48 8.9 86 86 Calm 29.97 1015 10 16 0.00 0.00
5:53 am 05:53 Clear 53 11.7 49 9.4 86 86 Calm 29.98 1015 10 16 0.00 0.00
6:53 am 06:53 Sunny 52 11.1 48 8.9 86 86 NNW 5 7 30.01 1016 10 16 0.00 0.00
7:53 am 07:53 Sunny 55 12.8 50 10 83 83 NNW 3 6 30.02 1017 10 16 0.00 0.00
8:53 am 08:53 Sunny 59 15 50 10 72 72 NW 7 11 30.02 1017 10 16 0.00 0.00
9:53 am 09:53 Sunny 62 16.7 47 8.3 58 58 VRB 6 9 30.03 1017 10 16 0.00 0.00
10:53 am 10:53 Sunny 65 18.3 47 8.3 52 52 Calm 30.03 1017 10 16 0.00 0.00
11:53 am 11:53 Sunny 66 18.9 46 7.8 49 49 VRB 3 6 30.04 1017 10 16 0.00 0.00
12:53 pm 12:53 Sunny 68 20 46 7.8 45 45 VRB 3 6 30.02 1017 10 16 0.00 0.00
1:53 pm 13:53 Sunny 68 20 46 7.8 45 45 VRB 6 9 30.02 1017 10 16 0.00 0.00
2:53 pm 14:53 Sunny 69 20.6 46 7.8 44 44 W 5 7 30.01 1016 10 16 0.00 0.00
3:53 pm 15:53 Sunny 70 21.1 46 7.8 42 42 Calm 30.00 1016 10 16 0.00 0.00
4:53 pm 16:53 Sunny 70 21.1 47 8.3 44 44 WNW 5 7 29.99 1016 10 16 0.00 0.00
5:53 pm 17:53 Sunny 68 20 48 8.9 49 49 W 6 9 30.01 1016 10 16 0.00 0.00
6:53 pm 18:53 Sunny 68 20 49 9.4 51 51 WNW 3 6 30.01 1016 10 16 0.00 0.00
7:53 pm 19:53 Sunny 67 19.4 49 9.4 53 53 Calm 30.01 1016 10 16 0.00 0.00
8:53 pm 20:53 Clear 64 17.8 52 11.1 65 65 Calm 30.02 1017 10 16 0.00 0.00
9:53 pm 21:53 Mostly Cloudy 65 18.3 49 9.4 56 56 NNE 5 7 30.03 1017 10 16 0.00 0.00
10:53 pm 22:53 Cloudy 63 17.2 50 10 63 63 NE 8 13 30.05 1018 10 16 0.00 0.00
11:53 pm 23:53 Cloudy 63 17.2 49 9.4 60 60 NE 10 17 30.00 1016 10 16 0.00 0.00

Powered by AerisWeather